Time,TemperatureF,DewpointF,PressureIn,WindDirection,WindDirectionDegrees,WindSpeedMPH,WindSpeedGustMPH,Humidity,HourlyPrecipIn,Conditions,Clouds,dailyrainin,SoftwareType,DateUTC
2013-01-23 00:03:00,9.9,1.7,30.47,SSW,203,0.0,2.0,69,0.00,,,0.00,WUHU216HW,2013-01-23 06:03:00,
2013-01-23 00:08:00,9.9,1.7,30.48,SSW,203,0.4,0.7,69,0.00,,,0.00,WUHU216HW,2013-01-23 06:08:00,
2013-01-23 00:13:00,10.1,1.9,30.47,SW,225,0.2,0.7,69,0.00,,,0.00,WUHU216HW,2013-01-23 06:13:00,
2013-01-23 00:18:00,10.1,1.9,30.47,SSW,203,0.0,0.4,69,0.00,,,0.00,WUHU216HW,2013-01-23 06:18:00,
2013-01-23 00:23:00,10.1,1.9,30.47,SW,225,0.7,1.1,69,0.00,,,0.00,WUHU216HW,2013-01-23 06:23:00,
2013-01-23 00:28:00,10.3,2.1,30.47,South,180,0.4,1.8,69,0.00,,,0.00,WUHU216HW,2013-01-23 06:28:00,
2013-01-23 00:33:00,10.3,2.1,30.47,South,180,0.0,1.8,69,0.00,,,0.00,WUHU216HW,2013-01-23 06:33:00,
2013-01-23 00:38:00,10.4,2.2,30.46,South,180,0.2,0.4,69,0.00,,,0.00,WUHU216HW,2013-01-23 06:38:00,
2013-01-23 00:43:00,10.4,2.2,30.46,SSW,203,1.1,1.8,69,0.00,,,0.00,WUHU216HW,2013-01-23 06:43:00,
2013-01-23 00:48:00,10.4,2.2,30.46,WSW,248,0.2,1.8,69,0.00,,,0.00,WUHU216HW,2013-01-23 06:48:00,
2013-01-23 00:53:00,10.4,2.2,30.46,SW,225,0.4,1.1,69,0.00,,,0.00,WUHU216HW,2013-01-23 06:53:00,
2013-01-23 00:58:00,10.6,2.3,30.46,SW,225,0.0,0.4,69,0.00,,,0.00,WUHU216HW,2013-01-23 06:58:00,
2013-01-23 01:03:00,10.6,2.7,30.45,SSW,203,0.0,1.1,70,0.00,,,0.00,WUHU216HW,2013-01-23 07:03:00,
2013-01-23 01:08:00,10.8,2.9,30.45,SSW,203,0.4,1.1,70,0.00,,,0.00,WUHU216HW,2013-01-23 07:08:00,
2013-01-23 01:13:00,10.8,2.9,30.45,SW,225,0.0,1.1,70,0.00,,,0.00,WUHU216HW,2013-01-23 07:13:00,
2013-01-23 01:18:00,10.8,2.9,30.45,SW,225,0.0,1.1,70,0.00,,,0.00,WUHU216HW,2013-01-23 07:18:00,
2013-01-23 01:23:00,10.8,2.9,30.45,East,90,0.0,0.7,70,0.00,,,0.00,WUHU216HW,2013-01-23 07:23:00,
2013-01-23 01:28:00,10.8,2.9,30.45,East,90,0.0,0.7,70,0.00,,,0.00,WUHU216HW,2013-01-23 07:28:00,
2013-01-23 01:33:00,10.8,2.9,30.45,East,90,0.0,0.4,70,0.00,,,0.00,WUHU216HW,2013-01-23 07:33:00,
2013-01-23 01:38:00,11.0,3.1,30.44,SE,135,0.0,0.2,70,0.00,,,0.00,WUHU216HW,2013-01-23 07:38:00,
2013-01-23 01:43:00,11.0,3.1,30.44,SE,135,0.0,0.2,70,0.00,,,0.00,WUHU216HW,2013-01-23 07:43:00,
2013-01-23 01:48:00,11.0,3.1,30.44,SE,135,0.0,0.2,70,0.00,,,0.00,WUHU216HW,2013-01-23 07:48:00,
2013-01-23 01:53:00,11.0,3.1,30.44,ESE,113,0.0,0.4,70,0.00,,,0.00,WUHU216HW,2013-01-23 07:53:00,
2013-01-23 01:58:00,11.2,3.2,30.44,SE,135,0.0,0.4,70,0.00,,,0.00,WUHU216HW,2013-01-23 07:58:00,
2013-01-23 02:03:00,11.2,3.5,30.44,South,180,0.4,0.7,71,0.00,,,0.00,WUHU216HW,2013-01-23 08:03:00,
2013-01-23 02:08:00,11.2,3.5,30.44,South,180,0.0,0.7,71,0.00,,,0.00,WUHU216HW,2013-01-23 08:08:00,
2013-01-23 02:13:00,11.2,3.5,30.44,South,180,0.0,0.4,71,0.00,,,0.00,WUHU216HW,2013-01-23 08:13:00,
2013-01-23 02:18:00,11.2,3.5,30.44,South,180,0.0,0.2,71,0.00,,,0.00,WUHU216HW,2013-01-23 08:18:00,
2013-01-23 02:23:00,11.3,3.7,30.44,South,180,0.0,0.2,71,0.00,,,0.00,WUHU216HW,2013-01-23 08:23:00,
2013-01-23 02:28:00,11.2,3.5,30.44,South,180,0.0,0.2,71,0.00,,,0.00,WUHU216HW,2013-01-23 08:28:00,
2013-01-23 02:33:00,11.3,3.7,30.44,ESE,113,0.2,0.2,71,0.00,,,0.00,WUHU216HW,2013-01-23 08:33:00,
2013-01-23 02:39:00,11.3,3.7,30.43,East,90,0.2,0.9,71,0.00,,,0.00,WUHU216HW,2013-01-23 08:39:00,
2013-01-23 02:44:00,11.3,3.7,30.43,ENE,68,0.4,1.1,71,0.00,,,0.00,WUHU216HW,2013-01-23 08:44:00,
2013-01-23 02:49:00,11.3,3.7,30.43,ENE,68,0.0,1.1,71,0.00,,,0.00,WUHU216HW,2013-01-23 08:49:00,
2013-01-23 02:53:00,11.3,3.7,30.43,ENE,68,0.2,0.4,71,0.00,,,0.00,WUHU216HW,2013-01-23 08:53:00,
2013-01-23 02:58:00,11.3,3.7,30.43,ENE,68,0.2,0.7,71,0.00,,,0.00,WUHU216HW,2013-01-23 08:58:00,
2013-01-23 03:04:00,11.5,3.9,30.43,ENE,68,0.0,0.7,71,0.00,,,0.00,WUHU216HW,2013-01-23 09:04:00,
2013-01-23 03:09:00,11.3,3.7,30.42,ENE,68,0.0,0.4,71,0.00,,,0.00,WUHU216HW,2013-01-23 09:09:00,
2013-01-23 03:14:00,11.3,3.7,30.42,ENE,68,0.4,0.7,71,0.00,,,0.00,WUHU216HW,2013-01-23 09:14:00,
2013-01-23 03:19:00,11.5,4.1,30.42,ENE,68,0.0,0.9,72,0.00,,,0.00,WUHU216HW,2013-01-23 09:19:00,
2013-01-23 03:24:00,11.5,4.1,30.42,ENE,68,0.7,1.1,72,0.00,,,0.00,WUHU216HW,2013-01-23 09:24:00,
2013-01-23 03:29:00,11.5,4.1,30.42,ENE,68,0.4,1.1,72,0.00,,,0.00,WUHU216HW,2013-01-23 09:29:00,
2013-01-23 03:34:00,11.5,4.1,30.41,ENE,68,0.2,0.7,72,0.00,,,0.00,WUHU216HW,2013-01-23 09:34:00,
2013-01-23 03:39:00,11.5,4.1,30.41,ENE,68,0.4,1.1,72,0.00,,,0.00,WUHU216HW,2013-01-23 09:39:00,
2013-01-23 03:44:00,11.5,4.1,30.41,ENE,68,0.4,1.1,72,0.00,,,0.00,WUHU216HW,2013-01-23 09:44:00,
2013-01-23 03:49:00,11.5,4.1,30.41,ENE,68,0.4,1.1,72,0.00,,,0.00,WUHU216HW,2013-01-23 09:49:00,
2013-01-23 03:53:00,11.5,4.1,30.41,NE,45,1.1,2.5,72,0.00,,,0.00,WUHU216HW,2013-01-23 09:53:00,
2013-01-23 03:59:00,11.5,4.5,30.41,ENE,68,0.2,2.5,73,0.00,,,0.00,WUHU216HW,2013-01-23 09:59:00,
2013-01-23 04:04:00,11.5,4.5,30.41,ENE,68,0.0,1.3,73,0.00,,,0.00,WUHU216HW,2013-01-23 10:04:00,
2013-01-23 04:09:00,11.5,4.5,30.41,ENE,68,0.0,0.4,73,0.00,,,0.00,WUHU216HW,2013-01-23 10:09:00,
2013-01-23 04:14:00,11.5,4.5,30.41,ENE,68,0.0,0.0,73,0.00,,,0.00,WUHU216HW,2013-01-23 10:14:00,
2013-01-23 04:19:00,11.5,4.5,30.41,ENE,68,0.0,0.0,73,0.00,,,0.00,WUHU216HW,2013-01-23 10:19:00,
2013-01-23 04:24:00,11.5,4.5,30.41,ENE,68,0.0,0.0,73,0.00,,,0.00,WUHU216HW,2013-01-23 10:24:00,
2013-01-23 04:29:00,11.3,4.3,30.41,ENE,68,0.0,0.2,73,0.00,,,0.00,WUHU216HW,2013-01-23 10:29:00,
2013-01-23 04:34:00,11.3,4.6,30.40,ENE,68,0.0,0.2,74,0.00,,,0.00,WUHU216HW,2013-01-23 10:34:00,
2013-01-23 04:39:00,11.3,4.6,30.40,ENE,68,0.0,0.0,74,0.00,,,0.00,WUHU216HW,2013-01-23 10:39:00,
2013-01-23 04:44:00,11.3,4.6,30.40,ENE,68,0.2,0.4,74,0.00,,,0.00,WUHU216HW,2013-01-23 10:44:00,
2013-01-23 04:49:00,11.3,4.3,30.40,ENE,68,0.0,0.4,73,0.00,,,0.00,WUHU216HW,2013-01-23 10:49:00,
2013-01-23 04:54:00,11.5,4.5,30.40,ENE,68,0.0,0.4,73,0.00,,,0.00,WUHU216HW,2013-01-23 10:54:00,
2013-01-23 04:59:00,11.5,4.5,30.40,ENE,68,0.0,0.4,73,0.00,,,0.00,WUHU216HW,2013-01-23 10:59:00,
2013-01-23 05:04:00,11.5,4.5,30.39,ENE,68,0.0,0.0,73,0.00,,,0.00,WUHU216HW,2013-01-23 11:04:00,
2013-01-23 05:09:00,11.5,4.5,30.39,ENE,68,0.0,0.0,73,0.00,,,0.00,WUHU216HW,2013-01-23 11:09:00,
2013-01-23 05:14:00,11.3,4.6,30.39,ENE,68,0.0,0.0,74,0.00,,,0.00,WUHU216HW,2013-01-23 11:14:00,
2013-01-23 05:19:00,11.3,4.6,30.39,ENE,68,0.0,0.0,74,0.00,,,0.00,WUHU216HW,2013-01-23 11:19:00,
2013-01-23 05:24:00,11.5,4.8,30.39,ENE,68,0.0,0.0,74,0.00,,,0.00,WUHU216HW,2013-01-23 11:24:00,
2013-01-23 05:29:00,11.7,5.0,30.39,ENE,68,0.0,0.0,74,0.00,,,0.00,WUHU216HW,2013-01-23 11:29:00,
2013-01-23 05:34:00,11.7,5.0,30.39,WSW,248,0.0,0.7,74,0.00,,,0.00,WUHU216HW,2013-01-23 11:34:00,
2013-01-23 05:39:00,11.7,5.0,30.39,WSW,248,0.0,0.7,74,0.00,,,0.00,WUHU216HW,2013-01-23 11:39:00,
2013-01-23 05:44:00,11.7,5.2,30.39,WSW,248,0.0,0.2,75,0.00,,,0.00,WUHU216HW,2013-01-23 11:44:00,
2013-01-23 05:49:00,11.9,5.4,30.39,WSW,248,0.0,0.7,75,0.00,,,0.00,WUHU216HW,2013-01-23 11:49:00,
2013-01-23 05:54:00,11.9,5.4,30.39,WSW,248,0.0,0.7,75,0.00,,,0.00,WUHU216HW,2013-01-23 11:54:00,
2013-01-23 05:59:00,11.9,5.4,30.39,WSW,248,0.0,0.2,75,0.00,,,0.00,WUHU216HW,2013-01-23 11:59:00,
2013-01-23 06:04:00,11.9,5.4,30.39,WSW,248,0.0,0.4,75,0.00,,,0.00,WUHU216HW,2013-01-23 12:04:00,
2013-01-23 06:09:00,11.9,5.4,30.39,WSW,248,0.0,0.4,75,0.00,,,0.00,WUHU216HW,2013-01-23 12:09:00,
2013-01-23 06:14:00,11.9,5.4,30.40,WSW,248,0.0,0.0,75,0.00,,,0.00,WUHU216HW,2013-01-23 12:14:00,
2013-01-23 06:19:00,11.9,5.4,30.39,WSW,248,0.0,0.2,75,0.00,,,0.00,WUHU216HW,2013-01-23 12:19:00,
2013-01-23 06:24:00,11.9,5.4,30.39,WSW,248,0.4,0.4,75,0.00,,,0.00,WUHU216HW,2013-01-23 12:24:00,
2013-01-23 06:29:00,11.9,5.4,30.39,WSW,248,0.4,0.4,75,0.00,,,0.00,WUHU216HW,2013-01-23 12:29:00,
2013-01-23 06:34:00,12.1,5.6,30.39,WSW,248,0.0,0.7,75,0.00,,,0.00,WUHU216HW,2013-01-23 12:34:00,
2013-01-23 06:39:00,12.1,5.6,30.39,WSW,248,0.7,0.7,75,0.00,,,0.00,WUHU216HW,2013-01-23 12:39:00,
2013-01-23 06:44:00,11.9,5.4,30.40,WSW,248,0.0,0.7,75,0.00,,,0.00,WUHU216HW,2013-01-23 12:44:00,
2013-01-23 06:49:00,11.9,5.7,30.39,WSW,248,0.2,0.7,76,0.00,,,0.00,WUHU216HW,2013-01-23 12:49:00,
2013-01-23 06:54:00,11.9,5.7,30.39,WSW,248,0.0,0.4,76,0.00,,,0.00,WUHU216HW,2013-01-23 12:54:00,
2013-01-23 06:59:00,11.9,5.7,30.39,WSW,248,0.0,0.7,76,0.00,,,0.00,WUHU216HW,2013-01-23 12:59:00,
2013-01-23 07:04:00,11.9,5.7,30.39,WSW,248,0.4,0.7,76,0.00,,,0.00,WUHU216HW,2013-01-23 13:04:00,
2013-01-23 07:09:00,11.9,5.7,30.39,WSW,248,0.4,0.9,76,0.00,,,0.00,WUHU216HW,2013-01-23 13:09:00,
2013-01-23 07:14:00,11.9,5.7,30.39,WSW,248,0.4,0.9,76,0.00,,,0.00,WUHU216HW,2013-01-23 13:14:00,
2013-01-23 07:19:00,11.7,5.5,30.39,WSW,248,0.0,0.4,76,0.00,,,0.00,WUHU216HW,2013-01-23 13:19:00,
2013-01-23 07:24:00,11.7,5.5,30.40,WSW,248,0.0,0.7,76,0.00,,,0.00,WUHU216HW,2013-01-23 13:24:00,
2013-01-23 07:29:00,11.5,5.3,30.40,SSW,203,0.0,0.7,76,0.00,,,0.00,WUHU216HW,2013-01-23 13:29:00,
2013-01-23 07:34:00,11.3,5.1,30.40,SW,225,1.1,1.1,76,0.00,,,0.00,WUHU216HW,2013-01-23 13:34:00,
2013-01-23 07:39:00,11.2,5.0,30.40,SW,225,1.1,1.1,76,0.00,,,0.00,WUHU216HW,2013-01-23 13:39:00,
2013-01-23 07:44:00,11.0,4.8,30.40,SW,225,0.7,1.8,76,0.00,,,0.00,WUHU216HW,2013-01-23 13:44:00,
2013-01-23 07:49:00,11.0,4.8,30.40,SW,225,0.9,1.8,76,0.00,,,0.00,WUHU216HW,2013-01-23 13:49:00,
2013-01-23 07:54:00,10.8,4.6,30.40,West,270,0.4,1.3,76,0.00,,,0.00,WUHU216HW,2013-01-23 13:54:00,
2013-01-23 07:59:00,10.8,4.6,30.40,WSW,248,0.9,1.3,76,0.00,,,0.00,WUHU216HW,2013-01-23 13:59:00,
2013-01-23 08:04:00,10.8,4.6,30.41,SW,225,0.4,1.3,76,0.00,,,0.00,WUHU216HW,2013-01-23 14:04:00,
2013-01-23 08:09:00,10.6,4.4,30.40,WSW,248,0.4,1.1,76,0.00,,,0.00,WUHU216HW,2013-01-23 14:09:00,
2013-01-23 08:14:00,10.6,4.7,30.40,WSW,248,0.2,2.0,77,0.00,,,0.00,WUHU216HW,2013-01-23 14:14:00,
2013-01-23 08:19:00,10.4,4.5,30.40,WSW,248,1.3,2.0,77,0.00,,,0.00,WUHU216HW,2013-01-23 14:19:00,
2013-01-23 08:24:00,10.4,4.5,30.40,WSW,248,0.2,1.6,77,0.00,,,0.00,WUHU216HW,2013-01-23 14:24:00,
2013-01-23 08:29:00,10.4,4.5,30.40,WSW,248,0.0,1.6,77,0.00,,,0.00,WUHU216HW,2013-01-23 14:29:00,
2013-01-23 08:34:00,10.4,4.5,30.41,WSW,248,1.3,1.6,77,0.00,,,0.00,WUHU216HW,2013-01-23 14:34:00,
2013-01-23 08:39:00,10.6,4.7,30.41,WSW,248,0.4,1.6,77,0.00,,,0.00,WUHU216HW,2013-01-23 14:39:00,
2013-01-23 08:44:00,10.6,4.7,30.41,WSW,248,1.8,1.8,77,0.00,,,0.00,WUHU216HW,2013-01-23 14:44:00,
2013-01-23 08:49:00,10.6,4.7,30.41,WSW,248,0.7,2.5,77,0.00,,,0.00,WUHU216HW,2013-01-23 14:49:00,
2013-01-23 08:54:00,10.8,4.9,30.41,WNW,293,1.8,2.5,77,0.00,,,0.00,WUHU216HW,2013-01-23 14:54:00,
2013-01-23 08:59:00,11.0,5.0,30.41,WSW,248,1.1,2.2,77,0.00,,,0.00,WUHU216HW,2013-01-23 14:59:00,
2013-01-23 09:04:00,11.2,5.2,30.41,West,270,1.8,2.0,77,0.00,,,0.00,WUHU216HW,2013-01-23 15:04:00,
2013-01-23 09:09:00,11.3,5.4,30.41,WSW,248,0.4,2.7,77,0.00,,,0.00,WUHU216HW,2013-01-23 15:09:00,
2013-01-23 09:14:00,11.7,5.8,30.41,WSW,248,2.5,2.7,77,0.00,,,0.00,WUHU216HW,2013-01-23 15:14:00,
2013-01-23 09:19:00,12.1,6.5,30.41,West,270,2.0,3.1,78,0.00,,,0.00,WUHU216HW,2013-01-23 15:19:00,
2013-01-23 09:24:00,12.4,6.9,30.42,WSW,248,2.2,3.1,78,0.00,,,0.00,WUHU216HW,2013-01-23 15:24:00,
2013-01-23 09:29:00,12.8,7.2,30.42,West,270,3.4,3.4,78,0.00,,,0.00,WUHU216HW,2013-01-23 15:29:00,
2013-01-23 09:34:00,13.1,7.6,30.42,West,270,1.6,4.0,78,0.00,,,0.00,WUHU216HW,2013-01-23 15:34:00,
2013-01-23 09:39:00,13.3,7.8,30.42,WSW,248,4.0,7.2,78,0.00,,,0.00,WUHU216HW,2013-01-23 15:39:00,
2013-01-23 09:44:00,13.3,7.8,30.43,WSW,248,2.5,7.2,78,0.00,,,0.00,WUHU216HW,2013-01-23 15:44:00,
2013-01-23 09:49:00,13.5,7.9,30.43,West,270,5.8,5.8,78,0.00,,,0.00,WUHU216HW,2013-01-23 15:49:00,
2013-01-23 09:54:00,13.7,8.1,30.43,WNW,293,2.5,6.3,78,0.00,,,0.00,WUHU216HW,2013-01-23 15:54:00,
2013-01-23 09:59:00,13.9,8.3,30.43,WNW,293,2.5,6.9,78,0.00,,,0.00,WUHU216HW,2013-01-23 15:59:00,
2013-01-23 10:04:00,14.0,8.1,30.43,West,270,4.0,6.9,77,0.00,,,0.00,WUHU216HW,2013-01-23 16:04:00,
2013-01-23 10:09:00,14.0,8.1,30.44,NW,315,2.7,6.7,77,0.00,,,0.00,WUHU216HW,2013-01-23 16:09:00,
2013-01-23 10:14:00,14.0,8.1,30.44,WNW,293,3.8,4.5,77,0.00,,,0.00,WUHU216HW,2013-01-23 16:14:00,
2013-01-23 10:19:00,14.4,8.5,30.44,NNW,338,1.3,5.4,77,0.00,,,0.00,WUHU216HW,2013-01-23 16:19:00,
2013-01-23 10:24:00,14.6,8.6,30.44,NNW,338,3.4,5.4,77,0.00,,,0.00,WUHU216HW,2013-01-23 16:24:00,
2013-01-23 10:29:00,14.8,8.8,30.45,WSW,248,7.8,7.8,77,0.00,,,0.00,WUHU216HW,2013-01-23 16:29:00,
2013-01-23 10:34:00,14.9,9.0,30.44,NW,315,7.8,8.9,77,0.00,,,0.00,WUHU216HW,2013-01-23 16:34:00,
2013-01-23 10:39:00,15.1,8.9,30.44,West,270,8.9,9.8,76,0.00,,,0.00,WUHU216HW,2013-01-23 16:39:00,
2013-01-23 10:44:00,15.3,9.1,30.45,WNW,293,5.1,9.8,76,0.00,,,0.00,WUHU216HW,2013-01-23 16:44:00,
2013-01-23 10:49:00,15.5,9.3,30.45,NNW,338,5.4,8.9,76,0.00,,,0.00,WUHU216HW,2013-01-23 16:49:00,
2013-01-23 10:54:00,15.5,9.3,30.45,WNW,293,4.7,5.8,76,0.00,,,0.00,WUHU216HW,2013-01-23 16:54:00,
2013-01-23 10:59:00,15.8,9.3,30.45,West,270,2.7,11.4,75,0.00,,,0.00,WUHU216HW,2013-01-23 16:59:00,
2013-01-23 11:04:00,15.8,9.3,30.45,WNW,293,4.7,11.4,75,0.00,,,0.00,WUHU216HW,2013-01-23 17:04:00,
2013-01-23 11:09:00,15.8,9.3,30.45,WNW,293,4.3,11.9,75,0.00,,,0.00,WUHU216HW,2013-01-23 17:09:00,
2013-01-23 11:14:00,15.7,8.8,30.45,WNW,293,10.5,12.5,74,0.00,,,0.00,WUHU216HW,2013-01-23 17:14:00,
2013-01-23 11:19:00,15.7,8.8,30.45,NNW,338,3.8,12.5,74,0.00,,,0.00,WUHU216HW,2013-01-23 17:19:00,
2013-01-23 11:24:00,15.8,9.0,30.45,NW,315,4.9,10.3,74,0.00,,,0.00,WUHU216HW,2013-01-23 17:24:00,
2013-01-23 11:29:00,16.2,9.3,30.44,NNW,338,5.4,10.1,74,0.00,,,0.00,WUHU216HW,2013-01-23 17:29:00,
2013-01-23 11:34:00,16.2,9.3,30.44,West,270,4.3,8.3,74,0.00,,,0.00,WUHU216HW,2013-01-23 17:34:00,
2013-01-23 11:39:00,16.2,9.3,30.44,WSW,248,8.5,11.0,74,0.00,,,0.00,WUHU216HW,2013-01-23 17:39:00,
2013-01-23 11:44:00,16.0,9.2,30.44,NNW,338,6.5,14.3,74,0.00,,,0.00,WUHU216HW,2013-01-23 17:44:00,
2013-01-23 11:49:00,16.2,9.0,30.45,NNW,338,7.6,14.3,73,0.00,,,0.00,WUHU216HW,2013-01-23 17:49:00,
2013-01-23 11:54:00,16.2,9.0,30.45,WSW,248,6.7,15.7,73,0.00,,,0.00,WUHU216HW,2013-01-23 17:54:00,
2013-01-23 11:59:00,16.4,8.9,30.45,West,270,8.5,15.7,72,0.00,,,0.00,WUHU216HW,2013-01-23 17:59:00,
2013-01-23 12:04:00,16.2,8.4,30.45,WNW,293,7.4,15.0,71,0.00,,,0.00,WUHU216HW,2013-01-23 18:04:00,
2013-01-23 12:09:00,16.2,8.1,30.45,SW,225,7.8,13.9,70,0.00,,,0.00,WUHU216HW,2013-01-23 18:09:00,
2013-01-23 12:14:00,16.2,8.1,30.45,WSW,248,9.8,15.9,70,0.00,,,0.00,WUHU216HW,2013-01-23 18:14:00,
2013-01-23 12:19:00,16.0,7.6,30.45,West,270,12.3,17.7,69,0.00,,,0.00,WUHU216HW,2013-01-23 18:19:00,
2013-01-23 12:24:00,15.8,7.4,30.45,West,270,9.2,17.7,69,0.00,,,0.00,WUHU216HW,2013-01-23 18:24:00,
2013-01-23 12:29:00,16.2,7.4,30.45,WSW,248,8.9,14.1,68,0.00,,,0.00,WUHU216HW,2013-01-23 18:29:00,
2013-01-23 12:34:00,16.4,7.6,30.45,NW,315,10.5,12.1,68,0.00,,,0.00,WUHU216HW,2013-01-23 18:34:00,
2013-01-23 12:39:00,16.6,7.5,30.45,West,270,9.6,13.4,67,0.00,,,0.00,WUHU216HW,2013-01-23 18:39:00,
2013-01-23 12:44:00,16.4,6.6,30.45,NNW,338,12.1,13.4,65,0.00,,,0.00,WUHU216HW,2013-01-23 18:44:00,
2013-01-23 12:49:00,16.4,5.9,30.45,WSW,248,7.4,13.2,63,0.00,,,0.00,WUHU216HW,2013-01-23 18:49:00,
2013-01-23 12:54:00,16.2,5.4,30.45,NNW,338,8.5,17.4,62,0.00,,,0.00,WUHU216HW,2013-01-23 18:54:00,
2013-01-23 12:59:00,16.0,5.2,30.45,NW,315,9.8,17.4,62,0.00,,,0.00,WUHU216HW,2013-01-23 18:59:00,
2013-01-23 13:04:00,15.7,4.9,30.45,SW,225,7.2,12.8,62,0.00,,,0.00,WUHU216HW,2013-01-23 19:04:00,
2013-01-23 13:09:00,15.8,5.3,30.45,WNW,293,16.6,16.6,63,0.00,,,0.00,WUHU216HW,2013-01-23 19:09:00,
2013-01-23 13:14:00,15.7,5.2,30.45,West,270,5.1,16.6,63,0.00,,,0.00,WUHU216HW,2013-01-23 19:14:00,
2013-01-23 13:19:00,15.7,5.2,30.45,West,270,11.0,16.6,63,0.00,,,0.00,WUHU216HW,2013-01-23 19:19:00,
2013-01-23 13:24:00,15.5,5.4,30.45,WNW,293,5.6,15.0,64,0.00,,,0.00,WUHU216HW,2013-01-23 19:24:00,
2013-01-23 13:29:00,15.5,5.4,30.45,NNW,338,7.4,15.0,64,0.00,,,0.00,WUHU216HW,2013-01-23 19:29:00,
2013-01-23 13:34:00,15.5,5.4,30.46,North,0,6.0,12.8,64,0.00,,,0.00,WUHU216HW,2013-01-23 19:34:00,
2013-01-23 13:39:00,15.5,5.7,30.46,WNW,293,5.6,13.4,65,0.00,,,0.00,WUHU216HW,2013-01-23 19:39:00,
2013-01-23 13:44:00,15.5,5.4,30.47,West,270,9.4,13.6,64,0.00,,,0.00,WUHU216HW,2013-01-23 19:44:00,
2013-01-23 13:49:00,15.1,4.7,30.47,WNW,293,7.6,13.6,63,0.00,,,0.00,WUHU216HW,2013-01-23 19:49:00,
2013-01-23 13:54:00,14.8,4.1,30.47,West,270,10.5,13.6,62,0.00,,,0.00,WUHU216HW,2013-01-23 19:54:00,
2013-01-23 13:59:00,14.6,3.9,30.47,WSW,248,3.1,13.6,62,0.00,,,0.00,WUHU216HW,2013-01-23 19:59:00,
2013-01-23 14:04:00,14.6,3.9,30.48,West,270,10.5,14.8,62,0.00,,,0.00,WUHU216HW,2013-01-23 20:04:00,
2013-01-23 14:09:00,14.0,3.1,30.48,NNW,338,12.5,14.8,61,0.00,,,0.00,WUHU216HW,2013-01-23 20:09:00,
2013-01-23 14:14:00,13.7,2.3,30.48,WNW,293,6.3,16.1,60,0.00,,,0.00,WUHU216HW,2013-01-23 20:14:00,
2013-01-23 14:19:00,13.5,2.5,30.49,West,270,10.5,16.1,61,0.00,,,0.00,WUHU216HW,2013-01-23 20:19:00,
2013-01-23 14:24:00,13.5,2.5,30.49,NNW,338,8.5,16.1,61,0.00,,,0.00,WUHU216HW,2013-01-23 20:24:00,
2013-01-23 14:29:00,13.3,2.4,30.50,NNW,338,6.9,17.9,61,0.00,,,0.00,WUHU216HW,2013-01-23 20:29:00,
2013-01-23 14:34:00,13.3,2.4,30.50,WNW,293,9.8,17.9,61,0.00,,,0.00,WUHU216HW,2013-01-23 20:34:00,
2013-01-23 14:39:00,13.1,1.8,30.50,West,270,15.7,15.7,60,0.00,,,0.00,WUHU216HW,2013-01-23 20:39:00,
2013-01-23 14:44:00,13.0,1.6,30.51,North,0,6.5,15.7,60,0.00,,,0.00,WUHU216HW,2013-01-23 20:44:00,
2013-01-23 14:49:00,12.6,1.3,30.52,NW,315,8.1,15.7,60,0.00,,,0.00,WUHU216HW,2013-01-23 20:49:00,
2013-01-23 14:54:00,12.6,1.3,30.52,NNW,338,6.3,13.4,60,0.00,,,0.00,WUHU216HW,2013-01-23 20:54:00,
2013-01-23 14:59:00,12.6,1.3,30.53,NW,315,11.4,12.5,60,0.00,,,0.00,WUHU216HW,2013-01-23 20:59:00,
2013-01-23 15:04:00,11.9,0.2,30.53,NW,315,8.5,19.2,59,0.00,,,0.00,WUHU216HW,2013-01-23 21:04:00,
2013-01-23 15:09:00,11.7,0.0,30.53,NNW,338,11.0,19.2,59,0.00,,,0.00,WUHU216HW,2013-01-23 21:09:00,
2013-01-23 15:14:00,11.2,-0.4,30.54,North,0,10.5,18.8,59,0.00,,,0.00,WUHU216HW,2013-01-23 21:14:00,
2013-01-23 15:19:00,11.2,-0.4,30.54,NW,315,8.1,17.9,59,0.00,,,0.00,WUHU216HW,2013-01-23 21:19:00,
2013-01-23 15:24:00,11.2,-0.4,30.54,NNW,338,9.8,10.5,59,0.00,,,0.00,WUHU216HW,2013-01-23 21:24:00,
2013-01-23 15:29:00,11.2,-0.8,30.55,North,0,9.2,16.3,58,0.00,,,0.00,WUHU216HW,2013-01-23 21:29:00,
2013-01-23 15:34:00,10.8,-1.5,30.55,NW,315,3.4,16.3,57,0.00,,,0.00,WUHU216HW,2013-01-23 21:34:00,
2013-01-23 15:39:00,10.6,-1.7,30.56,NW,315,6.7,11.2,57,0.00,,,0.00,WUHU216HW,2013-01-23 21:39:00,
2013-01-23 15:44:00,10.4,-1.9,30.56,NNW,338,12.1,12.1,57,0.00,,,0.00,WUHU216HW,2013-01-23 21:44:00,
2013-01-23 15:49:00,10.1,-1.8,30.57,West,270,8.5,12.8,58,0.00,,,0.00,WUHU216HW,2013-01-23 21:49:00,
2013-01-23 15:54:00,10.1,-1.8,30.57,West,270,10.1,17.7,58,0.00,,,0.00,WUHU216HW,2013-01-23 21:54:00,
2013-01-23 15:59:00,9.7,-2.1,30.57,NNW,338,8.5,17.7,58,0.00,,,0.00,WUHU216HW,2013-01-23 21:59:00,
2013-01-23 16:04:00,9.5,-2.3,30.58,North,0,4.0,12.1,58,0.00,,,0.00,WUHU216HW,2013-01-23 22:04:00,
2013-01-23 16:09:00,9.2,-2.7,30.58,NW,315,10.5,12.1,58,0.00,,,0.00,WUHU216HW,2013-01-23 22:09:00,
2013-01-23 16:14:00,9.0,-2.9,30.59,NW,315,8.3,12.1,58,0.00,,,0.00,WUHU216HW,2013-01-23 22:14:00,
2013-01-23 16:19:00,8.8,-3.0,30.59,NW,315,9.2,12.5,58,0.00,,,0.00,WUHU216HW,2013-01-23 22:19:00,
2013-01-23 16:24:00,8.3,-3.6,30.59,NW,315,13.2,13.9,58,0.00,,,0.00,WUHU216HW,2013-01-23 22:24:00,
2013-01-23 16:29:00,8.3,-3.6,30.59,North,0,7.4,13.9,58,0.00,,,0.00,WUHU216HW,2013-01-23 22:29:00,
2013-01-23 16:34:00,7.9,-4.0,30.60,NW,315,9.8,13.2,58,0.00,,,0.00,WUHU216HW,2013-01-23 22:34:00,
2013-01-23 16:39:00,7.7,-4.5,30.61,NNW,338,9.2,10.5,57,0.00,,,0.00,WUHU216HW,2013-01-23 22:39:00,
2013-01-23 16:44:00,7.6,-4.6,30.61,North,0,7.6,10.3,57,0.00,,,0.00,WUHU216HW,2013-01-23 22:44:00,
2013-01-23 16:49:00,7.6,-4.6,30.61,WSW,248,7.6,10.3,57,0.00,,,0.00,WUHU216HW,2013-01-23 22:49:00,
2013-01-23 16:54:00,7.2,-4.9,30.61,West,270,6.7,13.0,57,0.00,,,0.00,WUHU216HW,2013-01-23 22:54:00,
2013-01-23 16:59:00,7.0,-5.1,30.62,WNW,293,5.6,13.0,57,0.00,,,0.00,WUHU216HW,2013-01-23 22:59:00,
2013-01-23 17:04:00,6.8,-4.8,30.62,North,0,5.8,12.1,58,0.00,,,0.00,WUHU216HW,2013-01-23 23:04:00,
2013-01-23 17:09:00,6.7,-5.0,30.63,WSW,248,6.5,10.5,58,0.00,,,0.00,WUHU216HW,2013-01-23 23:09:00,
2013-01-23 17:14:00,6.5,-5.2,30.63,NNW,338,8.5,11.2,58,0.00,,,0.00,WUHU216HW,2013-01-23 23:14:00,
2013-01-23 17:19:00,6.3,-5.4,30.64,North,0,5.4,11.2,58,0.00,,,0.00,WUHU216HW,2013-01-23 23:19:00,
2013-01-23 17:24:00,6.1,-5.6,30.64,NNW,338,4.7,8.9,58,0.00,,,0.00,WUHU216HW,2013-01-23 23:24:00,
2013-01-23 17:29:00,6.1,-5.2,30.65,NNW,338,1.8,7.8,59,0.00,,,0.00,WUHU216HW,2013-01-23 23:29:00,
2013-01-23 17:34:00,5.9,-5.4,30.65,NNW,338,5.4,10.5,59,0.00,,,0.00,WUHU216HW,2013-01-23 23:34:00,
2013-01-23 17:39:00,5.8,-5.6,30.65,North,0,4.3,10.5,59,0.00,,,0.00,WUHU216HW,2013-01-23 23:39:00,
2013-01-23 17:44:00,5.4,-5.9,30.65,NNW,338,6.3,8.7,59,0.00,,,0.00,WUHU216HW,2013-01-23 23:44:00,
2013-01-23 17:49:00,5.4,-5.9,30.66,NW,315,3.4,8.7,59,0.00,,,0.00,WUHU216HW,2013-01-23 23:49:00,
2013-01-23 17:54:00,5.0,-6.3,30.67,North,0,8.5,10.5,59,0.00,,,0.00,WUHU216HW,2013-01-23 23:54:00,
2013-01-23 17:59:00,4.9,-6.1,30.68,WSW,248,5.4,10.5,60,0.00,,,0.00,WUHU216HW,2013-01-23 23:59:00,
2013-01-23 18:04:00,4.7,-6.3,30.68,North,0,3.4,9.6,60,0.00,,,0.00,WUHU216HW,2013-01-24 00:04:00,
2013-01-23 18:09:00,4.7,-6.3,30.68,West,270,7.4,7.4,60,0.00,,,0.00,WUHU216HW,2013-01-24 00:09:00,
2013-01-23 18:14:00,4.5,-6.4,30.67,NNW,338,3.6,7.4,60,0.00,,,0.00,WUHU216HW,2013-01-24 00:14:00,
2013-01-23 18:19:00,4.3,-6.6,30.68,NNW,338,4.3,7.4,60,0.00,,,0.00,WUHU216HW,2013-01-24 00:19:00,
2013-01-23 18:24:00,4.1,-6.7,30.68,NNW,338,1.6,6.7,60,0.00,,,0.00,WUHU216HW,2013-01-24 00:24:00,
2013-01-23 18:29:00,4.0,-6.9,30.68,NNW,338,5.4,7.2,60,0.00,,,0.00,WUHU216HW,2013-01-24 00:29:00,
2013-01-23 18:34:00,4.0,-6.9,30.69,NNW,338,5.4,9.4,60,0.00,,,0.00,WUHU216HW,2013-01-24 00:34:00,
2013-01-23 18:39:00,4.0,-6.9,30.69,NNW,338,2.5,9.4,60,0.00,,,0.00,WUHU216HW,2013-01-24 00:39:00,
2013-01-23 18:44:00,3.8,-7.5,30.70,North,0,3.4,8.1,59,0.00,,,0.00,WUHU216HW,2013-01-24 00:44:00,
2013-01-23 18:49:00,3.8,-7.5,30.70,North,0,8.5,8.5,59,0.00,,,0.00,WUHU216HW,2013-01-24 00:49:00,
2013-01-23 18:54:00,3.6,-7.6,30.70,North,0,4.7,8.5,59,0.00,,,0.00,WUHU216HW,2013-01-24 00:54:00,
2013-01-23 18:59:00,3.6,-7.2,30.71,NW,315,6.3,8.5,60,0.00,,,0.00,WUHU216HW,2013-01-24 00:59:00,
2013-01-23 19:04:00,3.4,-7.4,30.71,NW,315,4.0,6.3,60,0.00,,,0.00,WUHU216HW,2013-01-24 01:04:00,
2013-01-23 19:09:00,3.4,-7.4,30.71,West,270,1.8,6.3,60,0.00,,,0.00,WUHU216HW,2013-01-24 01:09:00,
2013-01-23 19:14:00,3.2,-7.6,30.71,North,0,2.5,4.5,60,0.00,,,0.00,WUHU216HW,2013-01-24 01:14:00,
2013-01-23 19:19:00,3.2,-7.2,30.71,NW,315,2.5,5.4,61,0.00,,,0.00,WUHU216HW,2013-01-24 01:19:00,
2013-01-23 19:24:00,3.2,-7.6,30.72,NNE,23,7.6,7.6,60,0.00,,,0.00,WUHU216HW,2013-01-24 01:24:00,
2013-01-23 19:29:00,3.2,-7.2,30.72,NNW,338,1.6,7.6,61,0.00,,,0.00,WUHU216HW,2013-01-24 01:29:00,
2013-01-23 19:34:00,3.2,-7.6,30.72,North,0,5.1,7.6,60,0.00,,,0.00,WUHU216HW,2013-01-24 01:34:00,
2013-01-23 19:39:00,3.2,-7.6,30.73,NNE,23,3.4,8.5,60,0.00,,,0.00,WUHU216HW,2013-01-24 01:39:00,
2013-01-23 19:44:00,3.4,-7.4,30.73,NNW,338,2.0,8.5,60,0.00,,,0.00,WUHU216HW,2013-01-24 01:44:00,
2013-01-23 19:49:00,3.2,-7.6,30.73,North,0,1.8,5.4,60,0.00,,,0.00,WUHU216HW,2013-01-24 01:49:00,
2013-01-23 19:54:00,3.2,-7.9,30.73,North,0,4.0,7.2,59,0.00,,,0.00,WUHU216HW,2013-01-24 01:54:00,
2013-01-23 19:59:00,3.2,-7.6,30.73,North,0,2.5,7.2,60,0.00,,,0.00,WUHU216HW,2013-01-24 01:59:00,
2013-01-23 20:04:00,3.2,-7.6,30.73,NE,45,8.5,8.5,60,0.00,,,0.00,WUHU216HW,2013-01-24 02:04:00,
2013-01-23 20:09:00,3.2,-8.3,30.74,North,0,8.1,14.5,58,0.00,,,0.00,WUHU216HW,2013-01-24 02:09:00,
2013-01-23 20:14:00,3.2,-8.7,30.74,NNW,338,7.4,14.5,57,0.00,,,0.00,WUHU216HW,2013-01-24 02:14:00,
2013-01-23 20:19:00,3.1,-9.3,30.75,NNE,23,10.1,12.5,56,0.00,,,0.00,WUHU216HW,2013-01-24 02:19:00,
2013-01-23 20:24:00,3.1,-9.3,30.75,North,0,7.4,12.5,56,0.00,,,0.00,WUHU216HW,2013-01-24 02:24:00,
2013-01-23 20:29:00,2.9,-9.0,30.75,North,0,6.3,10.1,57,0.00,,,0.00,WUHU216HW,2013-01-24 02:29:00,
2013-01-23 20:34:00,2.9,-9.0,30.75,North,0,4.5,8.5,57,0.00,,,0.00,WUHU216HW,2013-01-24 02:34:00,
2013-01-23 20:39:00,2.7,-9.2,30.76,NE,45,3.6,8.5,57,0.00,,,0.00,WUHU216HW,2013-01-24 02:39:00,
2013-01-23 20:44:00,2.7,-9.2,30.76,NNE,23,5.1,8.5,57,0.00,,,0.00,WUHU216HW,2013-01-24 02:44:00,
2013-01-23 20:49:00,2.7,-9.2,30.76,NE,45,3.8,10.5,57,0.00,,,0.00,WUHU216HW,2013-01-24 02:49:00,
2013-01-23 20:54:00,2.7,-9.2,30.77,North,0,2.7,10.5,57,0.00,,,0.00,WUHU216HW,2013-01-24 02:54:00,
2013-01-23 20:59:00,2.7,-9.2,30.76,NNE,23,5.4,12.1,57,0.00,,,0.00,WUHU216HW,2013-01-24 02:59:00,
2013-01-23 21:04:00,2.5,-9.3,30.77,North,0,2.5,13.9,57,0.00,,,0.00,WUHU216HW,2013-01-24 03:04:00,
2013-01-23 21:09:00,2.5,-9.3,30.77,North,0,4.5,13.9,57,0.00,,,0.00,WUHU216HW,2013-01-24 03:09:00,
2013-01-23 21:14:00,2.3,-9.5,30.77,North,0,6.9,11.4,57,0.00,,,0.00,WUHU216HW,2013-01-24 03:14:00,
2013-01-23 21:19:00,2.2,-10.1,30.77,NE,45,6.9,13.9,56,0.00,,,0.00,WUHU216HW,2013-01-24 03:19:00,
2013-01-23 21:24:00,2.2,-10.1,30.78,North,0,5.4,13.9,56,0.00,,,0.00,WUHU216HW,2013-01-24 03:24:00,
2013-01-23 21:29:00,2.2,-10.1,30.78,North,0,3.8,11.6,56,0.00,,,0.00,WUHU216HW,2013-01-24 03:29:00,
2013-01-23 21:34:00,2.0,-9.9,30.78,ENE,68,2.2,11.6,57,0.00,,,0.00,WUHU216HW,2013-01-24 03:34:00,
2013-01-23 21:39:00,1.8,-10.1,30.78,NE,45,10.3,10.3,57,0.00,,,0.00,WUHU216HW,2013-01-24 03:39:00,
2013-01-23 21:44:00,1.8,-10.1,30.78,NE,45,7.2,10.5,57,0.00,,,0.00,WUHU216HW,2013-01-24 03:44:00,
2013-01-23 21:49:00,1.8,-10.4,30.78,NE,45,8.5,10.5,56,0.00,,,0.00,WUHU216HW,2013-01-24 03:49:00,
2013-01-23 21:51:00,1.8,-10.1,30.78,NNE,23,1.1,1.1,57,0.00,,,0.00,WUHU216HW,2013-01-24 03:51:00,
2013-01-23 21:54:00,1.8,-10.1,30.78,NNE,23,1.1,8.5,57,0.00,,,0.00,WUHU216HW,2013-01-24 03:54:00,
2013-01-23 21:59:00,1.8,-10.1,30.78,NNE,23,1.1,1.8,57,0.00,,,0.00,WUHU216HW,2013-01-24 03:59:00,
2013-01-23 23:00:00,0.4,-11.4,30.82,North,0,2.5,2.5,57,0.00,,,0.00,WUHU216HW,2013-01-24 05:00:00,
2013-01-23 23:01:00,0.4,-11.4,30.82,North,0,5.1,5.1,57,0.00,,,0.00,WUHU216HW,2013-01-24 05:01:00,
2013-01-23 23:03:00,0.4,-11.4,30.83,North,0,4.3,5.1,57,0.00,,,0.00,WUHU216HW,2013-01-24 05:03:00,
2013-01-23 23:08:00,0.2,-11.6,30.83,NNE,23,3.1,8.5,57,0.00,,,0.00,WUHU216HW,2013-01-24 05:08:00,
2013-01-23 23:13:00,0.2,-11.6,30.82,NNE,23,9.2,9.2,57,0.00,,,0.00,WUHU216HW,2013-01-24 05:13:00,
2013-01-23 23:18:00,0.0,-11.7,30.83,North,0,2.5,9.4,57,0.00,,,0.00,WUHU216HW,2013-01-24 05:18:00,
2013-01-23 23:23:00,0.0,-11.7,30.83,NNE,23,9.2,9.8,57,0.00,,,0.00,WUHU216HW,2013-01-24 05:23:00,
2013-01-23 23:28:00,0.0,-11.7,30.83,NE,45,4.3,9.8,57,0.00,,,0.00,WUHU216HW,2013-01-24 05:28:00,
2013-01-23 23:33:00,-0.2,-11.9,30.84,NE,45,4.5,9.2,57,0.00,,,0.00,WUHU216HW,2013-01-24 05:33:00,
2013-01-23 23:38:00,-0.4,-11.7,30.85,North,0,3.1,9.2,58,0.00,,,0.00,WUHU216HW,2013-01-24 05:38:00,
2013-01-23 23:43:00,-0.4,-11.7,30.85,NNE,23,5.4,6.9,58,0.00,,,0.00,WUHU216HW,2013-01-24 05:43:00,
2013-01-23 23:48:00,-0.4,-11.7,30.84,NE,45,4.5,8.1,58,0.00,,,0.00,WUHU216HW,2013-01-24 05:48:00,
2013-01-23 23:53:00,-0.5,-11.9,30.84,NNE,23,1.6,8.1,58,0.00,,,0.00,WUHU216HW,2013-01-24 05:53:00,
2013-01-23 23:58:00,-0.5,-11.9,30.85,ENE,68,2.2,7.4,58,0.00,,,0.00,WUHU216HW,2013-01-24 05:58:00,